Wetterdaten: Woche 10.01.22 - 16.01.22 (KW2)
Datum Zeit Temp. I. Temp. A. Feuchte I. Feuchte A. Luftdruck Regen Wind Richtung Sonnenschein Solar Taupunkt Windchill Windböen
10.01.2022 00:00 23,0 °C 2,8 °C 48 % 89 % 1008,5 hPa 0,0 l/m² 5,1 km/h (1 Bft) SW 0,00 h 0 W/m² 1,2 °C 2,8 °C 7,2 km/h (2 Bft)
10.01.2022 01:00 22,9 °C 2,7 °C 48 % 89 % 1009,4 hPa 0,0 l/m² 2,6 km/h (1 Bft) SW 0,00 h 0 W/m² 1,0 °C 2,6 °C 3,8 km/h (1 Bft)
10.01.2022 02:00 22,9 °C 2,5 °C 48 % 89 % 1010,4 hPa 0,0 l/m² 3,7 km/h (1 Bft) W 0,00 h 0 W/m² 0,9 °C 2,5 °C 6,1 km/h (2 Bft)
10.01.2022 03:00 22,9 °C 2,5 °C 48 % 89 % 1011,2 hPa 0,0 l/m² 3,4 km/h (1 Bft) SW 0,00 h 0 W/m² 0,9 °C 2,5 °C 5,8 km/h (2 Bft)
10.01.2022 04:00 22,8 °C 2,0 °C 48 % 89 % 1012,2 hPa 0,0 l/m² 4,9 km/h (1 Bft) W 0,00 h 0 W/m² 0,4 °C 1,4 °C 6,9 km/h (2 Bft)
10.01.2022 05:00 22,8 °C 1,9 °C 48 % 90 % 1013,4 hPa 0,0 l/m² 1,7 km/h (1 Bft) SW 0,00 h 0 W/m² 0,5 °C 1,9 °C 3,2 km/h (1 Bft)
10.01.2022 06:00 22,8 °C 2,3 °C 48 % 90 % 1014,4 hPa 0,0 l/m² 3,4 km/h (1 Bft) W 0,00 h 0 W/m² 0,8 °C 2,3 °C 4,8 km/h (1 Bft)
10.01.2022 07:00 22,8 °C 2,4 °C 46 % 91 % 1015,4 hPa 0,0 l/m² 2,9 km/h (1 Bft) W 0,00 h 0 W/m² 1,0 °C 2,4 °C 4,7 km/h (1 Bft)
10.01.2022 08:00 22,6 °C 2,4 °C 45 % 90 % 1016,8 hPa 0,0 l/m² 1,6 km/h (1 Bft) W 0,00 h 10 W/m² 1,0 °C 2,4 °C 2,5 km/h (1 Bft)
10.01.2022 09:00 22,6 °C 2,5 °C 45 % 91 % 1017,9 hPa 0,0 l/m² 0,0 km/h (0 Bft) W 0,00 h 28 W/m² 1,2 °C 2,5 °C 0,0 km/h (0 Bft)
10.01.2022 10:00 22,6 °C 3,2 °C 45 % 91 % 1018,9 hPa 0,0 l/m² 0,3 km/h (0 Bft) W 0,45 h 58 W/m² 1,9 °C 3,2 °C 0,6 km/h (0 Bft)
10.01.2022 11:00 22,7 °C 4,4 °C 46 % 91 % 1020,0 hPa 0,0 l/m² 5,5 km/h (2 Bft) NW 1,02 h 76 W/m² 3,1 °C 4,1 °C 9,8 km/h (2 Bft)
10.01.2022 12:00 22,6 °C 4,9 °C 46 % 89 % 1020,9 hPa 0,0 l/m² 6,3 km/h (2 Bft) N-NW 0,98 h 89 W/m² 3,2 °C 4,3 °C 10,5 km/h (2 Bft)
10.01.2022 13:00 22,6 °C 5,3 °C 46 % 88 % 1021,7 hPa 0,0 l/m² 5,3 km/h (1 Bft) NW 1,00 h 79 W/m² 3,5 °C 5,2 °C 9,0 km/h (2 Bft)
10.01.2022 14:00 22,7 °C 5,4 °C 46 % 87 % 1022,8 hPa 0,0 l/m² 3,6 km/h (1 Bft) N 0,08 h 33 W/m² 3,4 °C 5,3 °C 6,1 km/h (2 Bft)
10.01.2022 15:00 22,7 °C 5,1 °C 45 % 88 % 1023,9 hPa 0,0 l/m² 3,3 km/h (1 Bft) N-NO 0,00 h 9 W/m² 3,3 °C 5,1 °C 5,4 km/h (2 Bft)
10.01.2022 16:00 22,9 °C 4,8 °C 47 % 88 % 1024,8 hPa 0,0 l/m² 1,7 km/h (1 Bft) NO 0,00 h 6 W/m² 3,1 °C 4,8 °C 3,5 km/h (1 Bft)
10.01.2022 17:00 22,9 °C 4,6 °C 47 % 89 % 1025,8 hPa 0,0 l/m² 0,1 km/h (0 Bft) NO 0,00 h 0 W/m² 2,9 °C 4,6 °C 0,4 km/h (0 Bft)
10.01.2022 18:00 22,8 °C 4,3 °C 48 % 89 % 1026,9 hPa 0,0 l/m² 0,1 km/h (0 Bft) NO 0,00 h 0 W/m² 2,7 °C 4,3 °C 0,4 km/h (0 Bft)
10.01.2022 19:00 22,9 °C 4,1 °C 48 % 90 % 1027,7 hPa 0,2 l/m² 0,1 km/h (0 Bft) NO 0,00 h 0 W/m² 2,6 °C 4,1 °C 0,2 km/h (0 Bft)
10.01.2022 20:00 22,9 °C 3,6 °C 49 % 90 % 1028,6 hPa 0,0 l/m² 0,4 km/h (0 Bft) NO 0,00 h 0 W/m² 2,2 °C 3,6 °C 1,4 km/h (1 Bft)
10.01.2022 21:00 23,2 °C 3,5 °C 49 % 91 % 1029,3 hPa 0,0 l/m² 0,9 km/h (0 Bft) W-NW 0,00 h 0 W/m² 2,2 °C 3,5 °C 2,5 km/h (1 Bft)
10.01.2022 22:00 23,2 °C 3,6 °C 49 % 92 % 1029,8 hPa 0,0 l/m² 0,8 km/h (0 Bft) N-NO 0,00 h 0 W/m² 2,4 °C 3,6 °C 1,9 km/h (1 Bft)
10.01.2022 23:00 23,0 °C 3,3 °C 50 % 92 % 1030,3 hPa 0,0 l/m² 0,7 km/h (0 Bft) W-NW 0,00 h 0 W/m² 2,1 °C 3,3 °C 1,5 km/h (1 Bft)
11.01.2022 00:00 22,9 °C 3,2 °C 50 % 92 % 1030,8 hPa 0,2 l/m² 2,6 km/h (1 Bft) W-NW 0,00 h 0 W/m² 2,0 °C 3,0 °C 4,6 km/h (1 Bft)
11.01.2022 01:00 22,9 °C 3,0 °C 49 % 92 % 1031,3 hPa 0,0 l/m² 2,0 km/h (1 Bft) N 0,00 h 0 W/m² 1,9 °C 3,0 °C 4,5 km/h (1 Bft)
11.01.2022 02:00 22,8 °C 2,8 °C 49 % 91 % 1031,6 hPa 0,0 l/m² 0,2 km/h (0 Bft) N 0,00 h 0 W/m² 1,5 °C 2,8 °C 0,4 km/h (0 Bft)
11.01.2022 03:00 22,7 °C 2,7 °C 49 % 91 % 1031,9 hPa 0,0 l/m² 0,0 km/h (0 Bft) N 0,00 h 0 W/m² 1,4 °C 2,7 °C 0,4 km/h (0 Bft)
11.01.2022 04:00 22,7 °C 2,6 °C 49 % 91 % 1032,2 hPa 0,0 l/m² 0,1 km/h (0 Bft) N-NO 0,00 h 0 W/m² 1,3 °C 2,6 °C 0,8 km/h (0 Bft)
11.01.2022 05:00 22,8 °C 2,6 °C 49 % 91 % 1032,5 hPa 0,0 l/m² 0,1 km/h (0 Bft) N-NO 0,00 h 0 W/m² 1,3 °C 2,6 °C 0,4 km/h (0 Bft)
11.01.2022 06:00 22,7 °C 2,4 °C 49 % 91 % 1032,9 hPa 0,0 l/m² 0,3 km/h (0 Bft) NO 0,00 h 0 W/m² 1,0 °C 2,4 °C 1,3 km/h (1 Bft)
11.01.2022 07:00 22,6 °C 2,3 °C 48 % 90 % 1033,4 hPa 0,0 l/m² 0,1 km/h (0 Bft) NO 0,00 h 0 W/m² 0,9 °C 2,3 °C 0,7 km/h (0 Bft)
11.01.2022 08:00 22,6 °C 2,3 °C 47 % 90 % 1033,9 hPa 0,0 l/m² 0,7 km/h (0 Bft) NO 0,00 h 9 W/m² 0,8 °C 2,3 °C 1,5 km/h (1 Bft)
11.01.2022 09:00 22,6 °C 1,8 °C 46 % 90 % 1034,6 hPa 0,0 l/m² 8,3 km/h (2 Bft) O-NO 0,00 h 27 W/m² 0,4 °C -0,1 °C 12,7 km/h (3 Bft)
11.01.2022 10:00 22,5 °C 1,2 °C 47 % 91 % 1034,8 hPa 0,0 l/m² 8,0 km/h (2 Bft) O-NO 0,00 h 42 W/m² -0,1 °C -0,5 °C 12,1 km/h (2 Bft)
11.01.2022 11:00 22,5 °C 1,2 °C 47 % 91 % 1035,0 hPa 0,0 l/m² 6,5 km/h (2 Bft) O 0,00 h 46 W/m² -0,0 °C 0,5 °C 9,7 km/h (2 Bft)
11.01.2022 12:00 22,5 °C 1,5 °C 47 % 92 % 1035,0 hPa 0,0 l/m² 4,6 km/h (1 Bft) O-NO 0,43 h 51 W/m² 0,3 °C 1,4 °C 7,3 km/h (2 Bft)
11.01.2022 13:00 22,4 °C 1,7 °C 47 % 92 % 1034,8 hPa 0,0 l/m² 4,8 km/h (1 Bft) O-NO 0,07 h 47 W/m² 0,5 °C 1,6 °C 7,1 km/h (2 Bft)
11.01.2022 14:00 22,6 °C 1,7 °C 47 % 91 % 1034,9 hPa 0,0 l/m² 5,8 km/h (2 Bft) O-NO 0,00 h 34 W/m² 0,4 °C 1,5 °C 9,4 km/h (2 Bft)
11.01.2022 15:00 22,5 °C 1,5 °C 45 % 91 % 1035,0 hPa 0,0 l/m² 5,0 km/h (1 Bft) O-NO 0,00 h 14 W/m² 0,2 °C 1,4 °C 7,9 km/h (2 Bft)
11.01.2022 16:00 22,6 °C 1,3 °C 46 % 91 % 1035,0 hPa 0,0 l/m² 6,1 km/h (2 Bft) O 0,00 h 5 W/m² 0,0 °C 0,6 °C 8,7 km/h (2 Bft)
11.01.2022 17:00 22,6 °C 1,2 °C 46 % 92 % 1035,2 hPa 0,0 l/m² 3,7 km/h (1 Bft) O 0,00 h 0 W/m² 0,1 °C 1,0 °C 6,4 km/h (2 Bft)
11.01.2022 18:00 22,6 °C 1,3 °C 48 % 92 % 1035,5 hPa 0,0 l/m² 1,9 km/h (1 Bft) SO 0,00 h 0 W/m² 0,1 °C 1,3 °C 3,3 km/h (1 Bft)
11.01.2022 19:00 22,6 °C 1,1 °C 47 % 91 % 1035,8 hPa 0,0 l/m² 0,5 km/h (0 Bft) SO 0,00 h 0 W/m² -0,2 °C 1,1 °C 1,3 km/h (1 Bft)
11.01.2022 20:00 22,7 °C 0,9 °C 48 % 91 % 1036,0 hPa 0,0 l/m² 2,1 km/h (1 Bft) O-SO 0,00 h 0 W/m² -0,4 °C 0,9 °C 4,2 km/h (1 Bft)
11.01.2022 21:00 22,9 °C 0,8 °C 49 % 91 % 1036,3 hPa 0,0 l/m² 2,0 km/h (1 Bft) O-SO 0,00 h 0 W/m² -0,5 °C 0,8 °C 3,7 km/h (1 Bft)
11.01.2022 22:00 22,8 °C 0,7 °C 48 % 92 % 1036,4 hPa 0,0 l/m² 1,3 km/h (1 Bft) S-SO 0,00 h 0 W/m² -0,5 °C 0,7 °C 3,0 km/h (1 Bft)
11.01.2022 23:00 22,7 °C 0,6 °C 48 % 92 % 1036,2 hPa 0,0 l/m² 1,0 km/h (0 Bft) SO 0,00 h 0 W/m² -0,5 °C 0,6 °C 2,5 km/h (1 Bft)
12.01.2022 00:00 22,6 °C 0,7 °C 48 % 92 % 1036,2 hPa 0,0 l/m² 1,0 km/h (0 Bft) SO 0,00 h 0 W/m² -0,5 °C 0,7 °C 2,6 km/h (1 Bft)
12.01.2022 01:00 22,4 °C 0,7 °C 48 % 92 % 1036,0 hPa 0,0 l/m² 2,4 km/h (1 Bft) SO 0,00 h 0 W/m² -0,5 °C 0,7 °C 4,5 km/h (1 Bft)
12.01.2022 02:00 22,4 °C 0,7 °C 47 % 93 % 1035,9 hPa 0,0 l/m² 3,6 km/h (1 Bft) SO 0,00 h 0 W/m² -0,3 °C 0,7 °C 5,8 km/h (2 Bft)
12.01.2022 03:00 22,4 °C 0,8 °C 47 % 93 % 1035,8 hPa 0,0 l/m² 2,5 km/h (1 Bft) SO 0,00 h 0 W/m² -0,2 °C 0,8 °C 4,4 km/h (1 Bft)
12.01.2022 04:00 22,4 °C 0,6 °C 47 % 93 % 1036,0 hPa 0,0 l/m² 1,0 km/h (0 Bft) SO 0,00 h 0 W/m² -0,4 °C 0,6 °C 2,8 km/h (1 Bft)
12.01.2022 05:00 22,3 °C 0,4 °C 46 % 93 % 1035,9 hPa 0,0 l/m² 0,4 km/h (0 Bft) SO 0,00 h 0 W/m² -0,5 °C 0,4 °C 1,1 km/h (1 Bft)
12.01.2022 06:00 22,4 °C 0,3 °C 46 % 93 % 1036,0 hPa 0,0 l/m² 0,1 km/h (0 Bft) SO 0,00 h 0 W/m² -0,7 °C 0,3 °C 0,3 km/h (0 Bft)
12.01.2022 07:00 22,4 °C 0,4 °C 46 % 93 % 1036,2 hPa 0,0 l/m² 0,2 km/h (0 Bft) SO 0,00 h 0 W/m² -0,6 °C 0,4 °C 0,4 km/h (0 Bft)
12.01.2022 08:00 22,4 °C 0,8 °C 46 % 94 % 1036,7 hPa 0,0 l/m² 0,4 km/h (0 Bft) SO 0,00 h 9 W/m² -0,0 °C 0,8 °C 1,2 km/h (1 Bft)
12.01.2022 09:00 22,6 °C 1,5 °C 46 % 94 % 1036,9 hPa 0,0 l/m² 1,8 km/h (1 Bft) S-SW 0,37 h 46 W/m² 0,6 °C 1,5 °C 3,5 km/h (1 Bft)
12.01.2022 10:00 22,6 °C 2,4 °C 45 % 94 % 1037,4 hPa 0,0 l/m² 0,0 km/h (0 Bft) S-SW 0,98 h 88 W/m² 1,5 °C 2,4 °C 0,0 km/h (0 Bft)
12.01.2022 11:00 22,7 °C 4,1 °C 46 % 88 % 1037,0 hPa 0,0 l/m² 6,0 km/h (2 Bft) SW 1,02 h 121 W/m² 2,2 °C 3,2 °C 8,4 km/h (2 Bft)
12.01.2022 12:00 22,6 °C 4,3 °C 46 % 84 % 1036,9 hPa 0,0 l/m² 6,8 km/h (2 Bft) W-SW 1,00 h 83 W/m² 1,9 °C 3,6 °C 9,9 km/h (2 Bft)
12.01.2022 13:00 22,6 °C 4,4 °C 46 % 85 % 1037,0 hPa 0,0 l/m² 7,1 km/h (2 Bft) W-SW 0,28 h 48 W/m² 2,0 °C 3,4 °C 10,0 km/h (2 Bft)
12.01.2022 14:00 22,6 °C 4,3 °C 46 % 86 % 1037,1 hPa 0,0 l/m² 4,0 km/h (1 Bft) W-SW 0,58 h 52 W/m² 2,2 °C 4,3 °C 6,2 km/h (2 Bft)
12.01.2022 15:00 22,5 °C 4,5 °C 46 % 85 % 1037,1 hPa 0,0 l/m² 6,3 km/h (2 Bft) W-SW 0,00 h 19 W/m² 2,2 °C 4,0 °C 8,7 km/h (2 Bft)
12.01.2022 16:00 22,4 °C 4,3 °C 45 % 86 % 1037,5 hPa 0,0 l/m² 4,3 km/h (1 Bft) W-SW 0,00 h 0 W/m² 2,2 °C 3,9 °C 6,6 km/h (2 Bft)
12.01.2022 17:00 22,6 °C 4,4 °C 46 % 88 % 1038,2 hPa 0,0 l/m² 5,5 km/h (2 Bft) W-NW 0,00 h 0 W/m² 2,6 °C 3,8 °C 10,3 km/h (2 Bft)
12.01.2022 18:00 22,5 °C 4,1 °C 47 % 88 % 1038,4 hPa 0,0 l/m² 3,2 km/h (1 Bft) W-NW 0,00 h 0 W/m² 2,3 °C 4,1 °C 5,8 km/h (2 Bft)
12.01.2022 19:00 22,6 °C 3,6 °C 48 % 88 % 1038,6 hPa 0,0 l/m² 10,7 km/h (2 Bft) W 0,00 h 0 W/m² 1,8 °C 0,2 °C 15,7 km/h (3 Bft)
12.01.2022 20:00 22,7 °C 3,4 °C 49 % 88 % 1039,1 hPa 0,0 l/m² 5,2 km/h (1 Bft) W 0,00 h 0 W/m² 1,6 °C 2,5 °C 7,9 km/h (2 Bft)
12.01.2022 21:00 22,7 °C 2,3 °C 49 % 88 % 1039,0 hPa 0,0 l/m² 3,6 km/h (1 Bft) SW 0,00 h 0 W/m² 0,5 °C 2,3 °C 5,5 km/h (2 Bft)
12.01.2022 22:00 22,6 °C 1,0 °C 49 % 89 % 1038,8 hPa 0,0 l/m² 1,2 km/h (1 Bft) W 0,00 h 0 W/m² -0,6 °C 1,0 °C 2,6 km/h (1 Bft)
12.01.2022 23:00 22,6 °C 0,7 °C 49 % 91 % 1039,0 hPa 0,0 l/m² 1,4 km/h (1 Bft) SW 0,00 h 0 W/m² -0,7 °C 0,7 °C 2,9 km/h (1 Bft)
13.01.2022 00:00 22,6 °C 0,3 °C 49 % 91 % 1038,7 hPa 0,0 l/m² 0,5 km/h (0 Bft) SW 0,00 h 0 W/m² -1,0 °C 0,3 °C 1,3 km/h (1 Bft)
13.01.2022 01:00 22,6 °C -0,2 °C 49 % 91 % 1038,5 hPa 0,0 l/m² 0,4 km/h (0 Bft) SW 0,00 h 0 W/m² -1,5 °C -0,2 °C 1,2 km/h (1 Bft)
13.01.2022 02:00 22,7 °C 0,5 °C 49 % 92 % 1038,4 hPa 0,0 l/m² 2,7 km/h (1 Bft) SW 0,00 h 0 W/m² -0,7 °C 0,5 °C 5,4 km/h (2 Bft)
13.01.2022 03:00 22,7 °C 1,3 °C 48 % 92 % 1038,0 hPa 0,0 l/m² 4,4 km/h (1 Bft) W-SW 0,00 h 0 W/m² 0,2 °C 1,1 °C 7,2 km/h (2 Bft)
13.01.2022 04:00 22,7 °C 1,5 °C 48 % 91 % 1037,3 hPa 0,0 l/m² 3,8 km/h (1 Bft) W-SW 0,00 h 0 W/m² 0,2 °C 1,4 °C 6,3 km/h (2 Bft)
13.01.2022 05:00 22,8 °C 1,4 °C 48 % 91 % 1037,2 hPa 0,0 l/m² 3,9 km/h (1 Bft) SW 0,00 h 0 W/m² 0,1 °C 1,3 °C 6,5 km/h (2 Bft)
13.01.2022 06:00 22,8 °C 1,3 °C 47 % 90 % 1037,0 hPa 0,0 l/m² 10,1 km/h (2 Bft) SW 0,00 h 0 W/m² -0,1 °C -2,0 °C 15,4 km/h (3 Bft)
13.01.2022 07:00 22,9 °C 1,2 °C 46 % 90 % 1037,0 hPa 0,0 l/m² 7,6 km/h (2 Bft) SW 0,00 h 0 W/m² -0,2 °C -0,2 °C 11,3 km/h (2 Bft)
13.01.2022 08:00 22,9 °C 1,3 °C 47 % 90 % 1037,5 hPa 0,0 l/m² 6,3 km/h (2 Bft) W-SW 0,00 h 16 W/m² -0,2 °C 0,7 °C 9,4 km/h (2 Bft)
13.01.2022 09:00 23,5 °C 2,2 °C 46 % 88 % 1037,7 hPa 0,0 l/m² 10,0 km/h (2 Bft) SW 0,90 h 100 W/m² 0,3 °C -1,0 °C 15,1 km/h (3 Bft)
13.01.2022 10:00 23,6 °C 2,8 °C 45 % 88 % 1037,8 hPa 0,0 l/m² 13,0 km/h (3 Bft) SW 1,02 h 155 W/m² 1,0 °C -2,3 °C 18,9 km/h (3 Bft)
13.01.2022 11:00 23,4 °C 3,6 °C 46 % 87 % 1037,5 hPa 0,0 l/m² 15,1 km/h (3 Bft) SW 0,98 h 169 W/m² 1,7 °C -2,5 °C 20,3 km/h (4 Bft)
13.01.2022 12:00 23,2 °C 4,4 °C 46 % 86 % 1037,0 hPa 0,0 l/m² 13,4 km/h (3 Bft) SW 1,02 h 169 W/m² 2,2 °C -0,7 °C 18,6 km/h (3 Bft)
13.01.2022 13:00 23,1 °C 4,8 °C 46 % 84 % 1036,3 hPa 0,0 l/m² 16,1 km/h (3 Bft) W-SW 0,98 h 143 W/m² 2,4 °C -1,7 °C 21,3 km/h (4 Bft)
13.01.2022 14:00 22,9 °C 4,7 °C 46 % 85 % 1035,9 hPa 0,0 l/m² 15,0 km/h (3 Bft) W-SW 1,02 h 125 W/m² 2,4 °C -1,2 °C 21,0 km/h (4 Bft)
13.01.2022 15:00 22,8 °C 4,5 °C 46 % 85 % 1035,6 hPa 0,0 l/m² 15,9 km/h (3 Bft) SW 0,38 h 49 W/m² 2,2 °C -2,0 °C 21,8 km/h (4 Bft)
13.01.2022 16:00 22,7 °C 4,0 °C 46 % 85 % 1035,5 hPa 0,0 l/m² 16,2 km/h (3 Bft) W-SW 0,00 h 10 W/m² 1,7 °C -2,7 °C 21,0 km/h (4 Bft)
13.01.2022 17:00 22,7 °C 3,6 °C 46 % 86 % 1035,8 hPa 0,0 l/m² 9,3 km/h (2 Bft) W 0,00 h 0 W/m² 1,5 °C 1,0 °C 13,5 km/h (3 Bft)
13.01.2022 18:00 22,5 °C 2,9 °C 45 % 87 % 1035,8 hPa 0,0 l/m² 4,7 km/h (1 Bft) W-SW 0,00 h 0 W/m² 1,0 °C 2,6 °C 7,2 km/h (2 Bft)
13.01.2022 19:00 22,6 °C 2,4 °C 48 % 88 % 1035,7 hPa 0,0 l/m² 6,6 km/h (2 Bft) W-SW 0,00 h 0 W/m² 0,6 °C 1,9 °C 10,0 km/h (2 Bft)
13.01.2022 20:00 22,8 °C 2,0 °C 49 % 89 % 1035,4 hPa 0,0 l/m² 6,6 km/h (2 Bft) SW 0,00 h 0 W/m² 0,4 °C 1,3 °C 9,4 km/h (2 Bft)
13.01.2022 21:00 23,1 °C 1,8 °C 49 % 89 % 1035,3 hPa 0,0 l/m² 6,4 km/h (2 Bft) W 0,00 h 0 W/m² 0,2 °C 1,2 °C 8,6 km/h (2 Bft)
13.01.2022 22:00 23,3 °C 1,5 °C 48 % 89 % 1035,1 hPa 0,0 l/m² 3,9 km/h (1 Bft) N-NW 0,00 h 0 W/m² -0,1 °C 1,1 °C 6,4 km/h (2 Bft)
13.01.2022 23:00 23,1 °C 0,4 °C 48 % 88 % 1035,0 hPa 0,0 l/m² 0,1 km/h (0 Bft) N-NW 0,00 h 0 W/m² -1,4 °C 0,4 °C 0,2 km/h (0 Bft)
14.01.2022 00:00 23,0 °C -0,9 °C 47 % 89 % 1034,5 hPa 0,0 l/m² 0,1 km/h (0 Bft) N-NW 0,00 h 0 W/m² -2,5 °C -0,9 °C 0,6 km/h (0 Bft)
14.01.2022 01:00 23,0 °C -1,7 °C 47 % 90 % 1034,1 hPa 0,0 l/m² 0,0 km/h (0 Bft) N-NW 0,00 h 0 W/m² -3,1 °C -1,7 °C 0,1 km/h (0 Bft)
14.01.2022 02:00 22,9 °C -2,5 °C 47 % 90 % 1034,1 hPa 0,0 l/m² 0,1 km/h (0 Bft) N-NW 0,00 h 0 W/m² -3,9 °C -2,5 °C 0,1 km/h (0 Bft)
14.01.2022 03:00 22,9 °C -2,8 °C 47 % 91 % 1034,0 hPa 0,0 l/m² 0,0 km/h (0 Bft) N-NW 0,00 h 0 W/m² -4,0 °C -2,8 °C 0,0 km/h (0 Bft)
14.01.2022 04:00 23,0 °C -3,1 °C 47 % 91 % 1033,7 hPa 0,0 l/m² 0,0 km/h (0 Bft) N-NW 0,00 h 0 W/m² -4,3 °C -3,1 °C 0,1 km/h (0 Bft)
14.01.2022 05:00 22,9 °C -3,7 °C 47 % 91 % 1033,3 hPa 0,0 l/m² 0,0 km/h (0 Bft) N-NW 0,00 h 0 W/m² -4,9 °C -3,7 °C 0,0 km/h (0 Bft)
14.01.2022 06:00 23,0 °C -3,6 °C 47 % 92 % 1033,0 hPa 0,0 l/m² 0,1 km/h (0 Bft) N-NW 0,00 h 0 W/m² -4,7 °C -3,6 °C 0,4 km/h (0 Bft)
14.01.2022 07:00 23,0 °C -2,1 °C 45 % 93 % 1032,7 hPa 0,0 l/m² 0,8 km/h (0 Bft) W-SW 0,00 h 0 W/m² -3,1 °C -2,1 °C 1,9 km/h (1 Bft)
14.01.2022 08:00 22,9 °C 0,3 °C 45 % 93 % 1032,7 hPa 0,0 l/m² 6,0 km/h (2 Bft) SW 0,00 h 11 W/m² -0,6 °C -0,3 °C 8,7 km/h (2 Bft)
14.01.2022 09:00 22,9 °C 0,7 °C 44 % 93 % 1033,2 hPa 0,2 l/m² 5,1 km/h (1 Bft) W-SW 0,52 h 48 W/m² -0,3 °C 0,3 °C 8,0 km/h (2 Bft)
14.01.2022 10:00 23,0 °C 1,2 °C 45 % 93 % 1033,1 hPa 0,0 l/m² 10,2 km/h (2 Bft) W-SW 0,02 h 35 W/m² 0,2 °C -2,2 °C 14,9 km/h (3 Bft)
14.01.2022 11:00 23,0 °C 2,3 °C 46 % 92 % 1032,7 hPa 0,0 l/m² 15,6 km/h (3 Bft) W-SW 0,35 h 49 W/m² 1,2 °C -4,5 °C 20,4 km/h (4 Bft)
14.01.2022 12:00 22,9 °C 2,8 °C 45 % 89 % 1032,6 hPa 0,0 l/m² 13,3 km/h (3 Bft) W-SW 0,85 h 58 W/m² 1,2 °C -2,5 °C 17,5 km/h (3 Bft)
14.01.2022 13:00 22,9 °C 3,3 °C 46 % 88 % 1032,2 hPa 0,0 l/m² 16,5 km/h (3 Bft) SW 0,70 h 55 W/m² 1,5 °C -3,7 °C 22,0 km/h (4 Bft)
14.01.2022 14:00 22,9 °C 3,6 °C 46 % 88 % 1031,7 hPa 0,0 l/m² 16,6 km/h (3 Bft) SW 0,00 h 38 W/m² 1,8 °C -3,4 °C 23,1 km/h (4 Bft)
14.01.2022 15:00 23,0 °C 3,8 °C 46 % 89 % 1031,3 hPa 0,0 l/m² 13,9 km/h (3 Bft) SW 0,00 h 17 W/m² 2,1 °C -1,7 °C 19,3 km/h (3 Bft)
14.01.2022 16:00 22,9 °C 3,9 °C 46 % 89 % 1031,3 hPa 0,0 l/m² 13,4 km/h (3 Bft) W-SW 0,00 h 6 W/m² 2,3 °C -1,1 °C 18,4 km/h (3 Bft)
14.01.2022 17:00 22,7 °C 3,9 °C 46 % 90 % 1031,7 hPa 0,0 l/m² 3,3 km/h (1 Bft) SW 0,00 h 0 W/m² 2,4 °C 3,4 °C 5,3 km/h (1 Bft)
14.01.2022 18:00 22,6 °C 4,0 °C 46 % 90 % 1032,3 hPa 0,0 l/m² 1,8 km/h (1 Bft) SW 0,00 h 0 W/m² 2,5 °C 3,8 °C 3,3 km/h (1 Bft)
14.01.2022 19:00 22,5 °C 4,8 °C 47 % 92 % 1032,3 hPa 0,0 l/m² 8,4 km/h (2 Bft) W 0,00 h 0 W/m² 3,6 °C 3,0 °C 12,5 km/h (2 Bft)
14.01.2022 20:00 22,8 °C 4,4 °C 48 % 92 % 1032,1 hPa 0,0 l/m² 7,1 km/h (2 Bft) S-SW 0,00 h 0 W/m² 3,2 °C 3,3 °C 9,7 km/h (2 Bft)
14.01.2022 21:00 23,2 °C 4,0 °C 48 % 93 % 1032,2 hPa 0,0 l/m² 2,7 km/h (1 Bft) S-SW 0,00 h 0 W/m² 2,9 °C 4,0 °C 4,3 km/h (1 Bft)
14.01.2022 22:00 23,4 °C 4,1 °C 47 % 93 % 1032,1 hPa 0,0 l/m² 1,8 km/h (1 Bft) W-SW 0,00 h 0 W/m² 3,1 °C 4,1 °C 4,1 km/h (1 Bft)
14.01.2022 23:00 23,1 °C 4,1 °C 47 % 93 % 1032,2 hPa 0,0 l/m² 0,7 km/h (0 Bft) W-SW 0,00 h 0 W/m² 3,1 °C 4,1 °C 2,1 km/h (1 Bft)
15.01.2022 00:00 22,9 °C 3,9 °C 47 % 93 % 1031,9 hPa 0,0 l/m² 1,3 km/h (1 Bft) SW 0,00 h 0 W/m² 2,9 °C 3,9 °C 2,3 km/h (1 Bft)
15.01.2022 01:00 22,9 °C 3,4 °C 47 % 93 % 1031,7 hPa 0,0 l/m² 1,0 km/h (0 Bft) SW 0,00 h 0 W/m² 2,4 °C 3,4 °C 2,3 km/h (1 Bft)
15.01.2022 02:00 22,8 °C 2,8 °C 47 % 92 % 1031,6 hPa 0,0 l/m² 0,3 km/h (0 Bft) SW 0,00 h 0 W/m² 1,6 °C 2,8 °C 0,8 km/h (0 Bft)
15.01.2022 03:00 22,7 °C 1,6 °C 47 % 92 % 1031,3 hPa 0,0 l/m² 0,0 km/h (0 Bft) SW 0,00 h 0 W/m² 0,5 °C 1,6 °C 0,2 km/h (0 Bft)
15.01.2022 04:00 22,7 °C 0,5 °C 47 % 92 % 1031,0 hPa 0,0 l/m² 0,2 km/h (0 Bft) SW 0,00 h 0 W/m² -0,7 °C 0,5 °C 0,4 km/h (0 Bft)
15.01.2022 05:00 22,8 °C -0,5 °C 47 % 92 % 1030,7 hPa 0,0 l/m² 0,0 km/h (0 Bft) SW 0,00 h 0 W/m² -1,6 °C -0,5 °C 0,1 km/h (0 Bft)
15.01.2022 06:00 22,7 °C -0,8 °C 47 % 92 % 1030,5 hPa 0,0 l/m² 0,8 km/h (0 Bft) SW 0,00 h 0 W/m² -2,0 °C -0,8 °C 1,5 km/h (1 Bft)
15.01.2022 07:00 22,8 °C -1,0 °C 47 % 93 % 1030,7 hPa 0,0 l/m² 0,6 km/h (0 Bft) SW 0,00 h 0 W/m² -2,1 °C -1,0 °C 1,5 km/h (1 Bft)
15.01.2022 08:00 23,0 °C -0,5 °C 48 % 93 % 1030,9 hPa 0,0 l/m² 0,2 km/h (0 Bft) SW 0,00 h 10 W/m² -1,5 °C -0,5 °C 0,6 km/h (0 Bft)
15.01.2022 09:00 23,2 °C 0,3 °C 48 % 93 % 1031,0 hPa 0,0 l/m² 0,4 km/h (0 Bft) N-NO 0,00 h 28 W/m² -0,7 °C 0,3 °C 1,0 km/h (0 Bft)
15.01.2022 10:00 23,2 °C 1,2 °C 47 % 94 % 1031,1 hPa 0,2 l/m² 0,9 km/h (0 Bft) N-NO 0,38 h 48 W/m² 0,4 °C 1,2 °C 2,0 km/h (1 Bft)
15.01.2022 11:00 23,3 °C 2,0 °C 46 % 94 % 1030,7 hPa 0,0 l/m² 1,5 km/h (1 Bft) NO 0,83 h 58 W/m² 1,2 °C 2,0 °C 2,8 km/h (1 Bft)
15.01.2022 12:00 23,2 °C 2,9 °C 47 % 94 % 1030,3 hPa 0,0 l/m² 0,1 km/h (0 Bft) NO 1,00 h 73 W/m² 2,1 °C 2,9 °C 0,6 km/h (0 Bft)
15.01.2022 13:00 23,2 °C 3,8 °C 49 % 95 % 1029,7 hPa 0,0 l/m² 0,0 km/h (0 Bft) NO 0,98 h 75 W/m² 3,0 °C 3,8 °C 0,0 km/h (0 Bft)
15.01.2022 14:00 23,1 °C 4,1 °C 48 % 94 % 1029,0 hPa 0,0 l/m² 0,0 km/h (0 Bft) NO 0,57 h 54 W/m² 3,3 °C 4,1 °C 0,0 km/h (0 Bft)
15.01.2022 15:00 23,0 °C 4,2 °C 49 % 94 % 1028,5 hPa 0,0 l/m² 0,0 km/h (0 Bft) NO 0,00 h 27 W/m² 3,3 °C 4,2 °C 0,0 km/h (0 Bft)
15.01.2022 16:00 23,3 °C 3,9 °C 49 % 94 % 1028,1 hPa 0,0 l/m² 0,0 km/h (0 Bft) NO 0,00 h 10 W/m² 3,0 °C 3,9 °C 0,0 km/h (0 Bft)
15.01.2022 17:00 23,3 °C 3,2 °C 50 % 92 % 1027,9 hPa 0,0 l/m² 1,2 km/h (1 Bft) S 0,00 h 0 W/m² 2,0 °C 3,2 °C 2,0 km/h (1 Bft)
15.01.2022 18:00 23,0 °C 2,9 °C 47 % 88 % 1027,3 hPa 0,0 l/m² 2,8 km/h (1 Bft) S-SO 0,00 h 0 W/m² 1,2 °C 2,9 °C 4,4 km/h (1 Bft)
15.01.2022 19:00 23,0 °C 2,8 °C 49 % 87 % 1027,0 hPa 0,0 l/m² 1,7 km/h (1 Bft) S-SO 0,00 h 0 W/m² 0,8 °C 2,8 °C 3,2 km/h (1 Bft)
15.01.2022 20:00 23,1 °C 2,3 °C 48 % 88 % 1026,5 hPa 0,0 l/m² 1,0 km/h (0 Bft) S-SO 0,00 h 0 W/m² 0,5 °C 2,3 °C 2,2 km/h (1 Bft)
15.01.2022 21:00 23,4 °C 1,1 °C 48 % 88 % 1025,8 hPa 0,0 l/m² 0,9 km/h (0 Bft) S-SO 0,00 h 0 W/m² -0,7 °C 1,1 °C 1,9 km/h (1 Bft)
15.01.2022 22:00 23,5 °C 0,0 °C 47 % 89 % 1025,9 hPa 0,0 l/m² 0,3 km/h (0 Bft) S-SO 0,00 h 0 W/m² -1,6 °C 0,0 °C 1,0 km/h (0 Bft)
15.01.2022 23:00 23,3 °C -0,8 °C 48 % 90 % 1025,4 hPa 0,0 l/m² 1,2 km/h (1 Bft) S-SO 0,00 h 0 W/m² -2,2 °C -0,8 °C 2,1 km/h (1 Bft)
16.01.2022 00:00 23,2 °C -1,1 °C 48 % 91 % 1024,8 hPa 0,0 l/m² 0,8 km/h (0 Bft) S-SO 0,00 h 0 W/m² -2,4 °C -1,1 °C 1,8 km/h (1 Bft)
16.01.2022 01:00 23,2 °C -1,2 °C 47 % 92 % 1024,1 hPa 0,0 l/m² 1,1 km/h (0 Bft) SO 0,00 h 0 W/m² -2,4 °C -1,2 °C 2,5 km/h (1 Bft)
16.01.2022 02:00 23,2 °C -1,2 °C 47 % 92 % 1023,3 hPa 0,0 l/m² 0,2 km/h (0 Bft) SO 0,00 h 0 W/m² -2,3 °C -1,2 °C 1,3 km/h (1 Bft)
16.01.2022 03:00 23,2 °C -1,3 °C 47 % 92 % 1022,6 hPa 0,0 l/m² 2,2 km/h (1 Bft) SO 0,00 h 0 W/m² -2,3 °C -1,5 °C 3,9 km/h (1 Bft)
16.01.2022 04:00 23,2 °C 0,2 °C 47 % 93 % 1021,8 hPa 0,0 l/m² 10,5 km/h (2 Bft) S 0,00 h 0 W/m² -0,8 °C -3,6 °C 15,1 km/h (3 Bft)
16.01.2022 05:00 23,2 °C 0,5 °C 47 % 93 % 1021,1 hPa 0,0 l/m² 9,3 km/h (2 Bft) S-SW 0,00 h 0 W/m² -0,5 °C -2,2 °C 13,2 km/h (3 Bft)
16.01.2022 06:00 23,2 °C 0,6 °C 47 % 93 % 1020,5 hPa 0,0 l/m² 15,5 km/h (3 Bft) S-SW 0,00 h 0 W/m² -0,4 °C -6,5 °C 20,2 km/h (4 Bft)
16.01.2022 07:00 23,2 °C 0,6 °C 47 % 93 % 1020,3 hPa 0,0 l/m² 11,8 km/h (2 Bft) SW 0,00 h 0 W/m² -0,4 °C -4,0 °C 15,9 km/h (3 Bft)
16.01.2022 08:00 23,3 °C 0,9 °C 48 % 93 % 1020,9 hPa 0,0 l/m² 9,0 km/h (2 Bft) SW 0,00 h 21 W/m² -0,1 °C -1,7 °C 13,8 km/h (3 Bft)
16.01.2022 09:00 23,5 °C 1,4 °C 48 % 93 % 1021,0 hPa 0,0 l/m² 12,0 km/h (2 Bft) SW 0,92 h 85 W/m² 0,4 °C -3,2 °C 17,5 km/h (3 Bft)
16.01.2022 10:00 23,6 °C 2,2 °C 45 % 91 % 1021,0 hPa 0,0 l/m² 13,9 km/h (3 Bft) SW 1,00 h 120 W/m² 1,0 °C -3,4 °C 19,3 km/h (3 Bft)
16.01.2022 11:00 23,3 °C 2,9 °C 45 % 90 % 1021,1 hPa 0,0 l/m² 16,4 km/h (3 Bft) SW 1,00 h 110 W/m² 1,4 °C -4,0 °C 23,2 km/h (4 Bft)
16.01.2022 12:00 23,2 °C 3,2 °C 46 % 87 % 1021,6 hPa 0,0 l/m² 21,1 km/h (4 Bft) W-SW 0,77 h 85 W/m² 1,3 °C -5,8 °C 28,6 km/h (5 Bft)
16.01.2022 13:00 23,2 °C 3,4 °C 48 % 87 % 1021,7 hPa 0,0 l/m² 18,2 km/h (3 Bft) W-SW 0,65 h 74 W/m² 1,5 °C -4,3 °C 23,5 km/h (4 Bft)
16.01.2022 14:00 23,2 °C 3,3 °C 47 % 88 % 1021,4 hPa 0,0 l/m² 18,0 km/h (3 Bft) SW 0,30 h 42 W/m² 1,5 °C -4,2 °C 23,9 km/h (4 Bft)
16.01.2022 15:00 23,3 °C 3,2 °C 49 % 88 % 1021,5 hPa 0,0 l/m² 16,4 km/h (3 Bft) SW 0,00 h 12 W/m² 1,4 °C -3,5 °C 22,0 km/h (4 Bft)
16.01.2022 16:00 23,4 °C 3,4 °C 51 % 89 % 1022,1 hPa 0,0 l/m² 14,8 km/h (3 Bft) SW 0,00 h 0 W/m² 1,7 °C -2,7 °C 20,7 km/h (4 Bft)
16.01.2022 17:00 23,4 °C 3,6 °C 51 % 89 % 1022,5 hPa 0,0 l/m² 16,1 km/h (3 Bft) SW 0,00 h 0 W/m² 1,9 °C -3,1 °C 22,5 km/h (4 Bft)
16.01.2022 18:00 23,2 °C 3,8 °C 50 % 88 % 1022,7 hPa 0,0 l/m² 18,8 km/h (3 Bft) SW 0,00 h 0 W/m² 2,0 °C -4,2 °C 25,1 km/h (4 Bft)
16.01.2022 19:00 23,2 °C 4,0 °C 49 % 86 % 1023,2 hPa 0,0 l/m² 18,2 km/h (3 Bft) SW 0,00 h 0 W/m² 2,0 °C -3,6 °C 25,1 km/h (4 Bft)
16.01.2022 20:00 23,2 °C 4,1 °C 49 % 86 % 1023,3 hPa 0,0 l/m² 21,8 km/h (4 Bft) SW 0,00 h 0 W/m² 1,9 °C -4,9 °C 28,9 km/h (5 Bft)
16.01.2022 21:00 23,6 °C 4,2 °C 49 % 85 % 1023,7 hPa 0,2 l/m² 20,1 km/h (4 Bft) SW 0,00 h 0 W/m² 1,9 °C -4,2 °C 27,4 km/h (5 Bft)
16.01.2022 22:00 23,4 °C 4,3 °C 47 % 86 % 1023,7 hPa 0,0 l/m² 22,2 km/h (4 Bft) SW 0,00 h 0 W/m² 2,2 °C -4,9 °C 31,6 km/h (5 Bft)
16.01.2022 23:00 23,2 °C 4,4 °C 48 % 86 % 1023,9 hPa 0,0 l/m² 20,5 km/h (4 Bft) SW 0,00 h 0 W/m² 2,3 °C -4,1 °C 28,5 km/h (5 Bft)
Min-Datum _ 12.01.22 14.01.22 14.01.22 13.01.22 10.01.22 - 16.01.22 - - - 14.01.22 16.01.22 16.01.22
_ Min-Zeit 16:20 06:00 09:26 14:00 00:00 - 03:00 - - - 05:48 12:01 03:00
Minimum _ 22,3 °C -3,9 °C 41 % 84 % 1008,0 hPa - 0,0 km/h (0 Bft) - - - -5,1 °C -9,5 °C 0,0 km/h (0 Bft)
Max-Datum _ 16.01.22 10.01.22 16.01.22 15.01.22 12.01.22 16.01.22 16.01.22 - 16.01.22 12.01.22 14.01.22 10.01.22 16.01.22
_ Max-Zeit 10:04 14:14 17:00 14:00 20:30 21:55 12:01 - 14:06 11:26 20:06 14:14 12:04
Maximum _ 23,7 °C 5,5 °C 51 % 95 % 1039,3 hPa 0,2 l/m² 31,8 km/h
W-SW (5 Bft)
- 0,05 h 230 W/m² 3,8 °C 5,5 °C 41,8 km/h
W-SW (6 Bft)
Durchschnitt _ 22,9 °C 2,1 °C 47 % 90 % 1030,4 hPa #1,0 l/m² 5,2 km/h (1 Bft) SW #25:24 h 20 W/m² 0,7 °C 0,7 °C 7,8 km/h (2 Bft)
© 2009 Mathias Hoßbach